Regional Weather Roundup
Issued by NWS State College, PA

Home | Current Version | Previous Version | Graphics & Text | Print | Product List | Glossary Off
Versions: 1 2 3 4 5 6 7 8 9 10 11 12 13 14 15 16 17 18 19 20 21 22 23 24 25 26 27 28 29 30 31 32 33 34 35 36 37 38 39 40 41 42 43 44 45 46 47 48 49 50

000
ASUS41 KCTP 010210
RWRCTP

REGIONAL WEATHER ROUNDUP
NATIONAL WEATHER SERVICE STATE COLLEGE PA
1000 PM EDT FRI SEP 30 2016

Note: "fair" indicates few or no clouds below 12,000 feet with no
significant weather and/or obstructions to visibility.

* = STATION THAT DOES NOT REPORT PRECIPITATION /E.G. RAIN...SNOW...ETC/
    THUNDER OR FOG.

PAZ002>004-007>009-013>016-020>023-029>032-010300-
WESTERN PENNSYLVANIA

CITY           SKY/WX    TMP DP  RH WIND       PRES   REMARKS
ERIE           CLOUDY    63  54  72 SE8       30.13S
MEADVILLE      CLOUDY    57  53  86 E8        30.13F
FRANKLIN*        N/A     55  50  82 E9G23     30.15F
NEW CASTLE     CLOUDY    58  55  90 E6        30.12S
BEAVER COUNTY  NOT AVBL
BUTLER*        CLOUDY    55  52  88 E13       30.15S
PITTSBURGH INT CLOUDY    57  56  96 E10       30.10R
PITTSBURGH     MOCLDY    57  53  86 NE7       30.09F
INDIANA*       CLOUDY    57  55  94 E10       30.18S FOG
LATROBE        LGT RAIN  57  57 100 NE14      30.13S
WASHINGTON CO* PTCLDY    57  54  88 NE5       30.09F
$$

PAZ004>006-010>012-017>019-024>028-033>037-041-042-045-046-049>053-010300-
CENTRAL PENNSYLVANIA

CITY           SKY/WX    TMP DP  RH WIND       PRES   REMARKS
BRADFORD       CLOUDY    54  53  97 SE9       30.22S
DUBOIS         CLOUDY    55  51  86 E14G21    30.18F
CLEARFIELD     CLOUDY    54  54 100 E9        30.20F FOG
JOHNSTOWN      CLOUDY    53  53 100 E8        30.16R
ALTOONA        CLOUDY    54  54 100 E10G17    30.19S FOG
STATE COLLEGE  CLOUDY    55  54  97 NE8       30.21F
WILLIAMSPORT   CLOUDY    57  56  96 CALM      30.24S
SELINSGROVE    CLOUDY    57  57 100 NE6       30.24F
FT INDIANTOWN  CLOUDY    58  54  87 E13G20    30.22S
CAPITAL CITY   CLOUDY    60  55  83 E13       30.20S
HARRISBURG     CLOUDY    59  57  93 E9        30.20R
YORK           CLOUDY    59  58  96 E13       30.18F
$$

PAZ038>040-043-044-047-048-054-055-060>062-067>071-010300-
EASTERN PENNSYLVANIA

CITY           SKY/WX    TMP DP  RH WIND       PRES   REMARKS
SCRANTON       CLOUDY    55  51  86 NE9       30.26F
MOUNT POCONO   NOT AVBL
ALLENTOWN      CLOUDY    57  54  89 NE10      30.25S
QUAKERTOWN*    CLOUDY    55  55 100 NE7       30.24F
READING        CLOUDY    59  54  83 VRB6      30.22R FOG
LANCASTER      CLOUDY    59  57  93 E14       30.21R
COATESVILLE    CLOUDY    57  57 100 NE8G26    30.21S
POTTSTOWN      CLOUDY    57  55  93 NE9       30.24S
BLUE BELL      CLOUDY    55  55 100 NE8       30.21S
DOYLESTOWN     CLOUDY    58  56  93 NE10G20   30.22F
WILLOW GROVE   NOT AVBL
NORTH PHILA    CLOUDY    61  58  90 NE15      30.22F
PHILADELPHIA   CLOUDY    61  57  87 NE12G22   30.20F
$$




USA.gov is the U.S. government's official web portal to all federal, state and local government web resources and services.